• In Czech Republic
  • List of Countries
  • For 7 days
  • Water Temperature
  • Satellite Maps
  • Weather Map
  • Weather Widgets
  • user-avatar
    Login

    Hourly Weather Preston

    Today, 13 December, Wednesday

    Time Temperature Precipitation Wind Pressure Humidity
    00:00 +3°C° 0 mm 6 mps 746 mmHg 93%
    01:00 +2°C° 0 mm 6 mps 746 mmHg 91%
    02:00 +2°C° 0 mm 6 mps 746 mmHg 90%
    03:00 +2°C° 0 mm 6 mps 746 mmHg 89%
    04:00 +2°C° 0.2 mm 6 mps 745 mmHg 90%
    05:00 +3°C° 0.2 mm 6 mps 745 mmHg 91%
    06:00 +3°C° 0.2 mm 6 mps 745 mmHg 92%
    07:00 +3°C° 0.3 mm 7 mps 744 mmHg 92%
    08:00 +3°C° 0.3 mm 7 mps 743 mmHg 92%
    09:00 +3°C° 0.3 mm 7 mps 742 mmHg 93%
    10:00 +4°C° 1.2 mm 8 mps 741 mmHg 91%
    11:00 +3°C° 1.2 mm 9 mps 740 mmHg 90%
    12:00 +3°C° 1.2 mm 10 mps 739 mmHg 89%
    13:00 +3°C° 0.5 mm 10 mps 739 mmHg 82%
    14:00 +2°C° 0.5 mm 10 mps 739 mmHg 76%
    15:00 +2°C° 0.5 mm 10 mps 739 mmHg 70%
    16:00 +1°C° 0.3 mm 9 mps 738 mmHg 71%
    17:00 +1°C° 0.3 mm 9 mps 738 mmHg 73%
    18:00 0°C° 0.3 mm 9 mps 738 mmHg 75%
    19:00 0°C° 0.4 mm 9 mps 738 mmHg 74%
    20:00 0°C° 0.4 mm 9 mps 738 mmHg 74%
    21:00 0°C° 0.4 mm 10 mps 738 mmHg 74%
    22:00 0°C° 0.3 mm 9 mps 739 mmHg 74%
    23:00 0°C° 0.3 mm 9 mps 739 mmHg 74%

    Tomorrow, 14 December, Thursday

    Time Temperature Precipitation Wind Pressure Humidity
    00:00 0°C° 0.3 mm 9 mps 739 mmHg 74%
    01:00 0°C° 0.3 mm 9 mps 739 mmHg 75%
    02:00 0°C° 0.3 mm 9 mps 739 mmHg 76%
    03:00 0°C° 0.3 mm 9 mps 739 mmHg 77%
    04:00 0°C° 0.4 mm 9 mps 739 mmHg 77%
    05:00 0°C° 0.4 mm 9 mps 739 mmHg 77%
    06:00 +1°C° 0.4 mm 9 mps 739 mmHg 76%
    07:00 +1°C° 0.4 mm 9 mps 738 mmHg 77%
    08:00 0°C° 0.4 mm 9 mps 738 mmHg 77%
    09:00 0°C° 0.4 mm 9 mps 738 mmHg 77%
    10:00 +1°C° 0.1 mm 8 mps 738 mmHg 77%
    11:00 +1°C° 0.1 mm 8 mps 738 mmHg 77%
    12:00 +1°C° 0.1 mm 8 mps 738 mmHg 77%
    13:00 +1°C° 0.2 mm 8 mps 738 mmHg 78%
    14:00 +2°C° 0.2 mm 7 mps 737 mmHg 80%
    15:00 +2°C° 0.2 mm 7 mps 737 mmHg 81%
    16:00 +2°C° 0.9 mm 6 mps 736 mmHg 83%
    17:00 +2°C° 0.9 mm 5 mps 736 mmHg 85%
    18:00 +2°C° 0.9 mm 5 mps 736 mmHg 87%
    19:00 +1°C° 0.1 mm 4 mps 736 mmHg 88%
    20:00 +1°C° 0.1 mm 4 mps 736 mmHg 89%
    21:00 +1°C° 0.1 mm 4 mps 736 mmHg 89%
    22:00 +1°C° 0.3 mm 4 mps 737 mmHg 89%
    23:00 +1°C° 0.3 mm 3 mps 737 mmHg 89%

    Day after tomorrow, 15 December, Friday

    Time Temperature Precipitation Wind Pressure Humidity
    00:00 +1°C° 0.3 mm 3 mps 738 mmHg 88%
    01:00 +1°C° 0.2 mm 3 mps 739 mmHg 88%
    02:00 0°C° 0.2 mm 4 mps 740 mmHg 87%
    03:00 0°C° 0.2 mm 5 mps 741 mmHg 87%
    04:00 0°C° 0 mm 5 mps 743 mmHg 87%
    05:00 0°C° 0 mm 5 mps 744 mmHg 87%
    06:00 -1°C° 0 mm 5 mps 745 mmHg 88%
    07:00 0°C° 0 mm 5 mps 746 mmHg 88%
    08:00 0°C° 0 mm 5 mps 747 mmHg 88%
    09:00 0°C° 0 mm 5 mps 748 mmHg 87%
    10:00 +1°C° 0 mm 5 mps 749 mmHg 86%
    11:00 +1°C° 0 mm 5 mps 750 mmHg 85%
    12:00 +2°C° 0 mm 5 mps 751 mmHg 83%
    13:00 +1°C° 0 mm 5 mps 751 mmHg 82%
    14:00 +1°C° 0 mm 5 mps 752 mmHg 81%
    15:00 +1°C° 0 mm 5 mps 752 mmHg 79%
    16:00 0°C° 0 mm 5 mps 753 mmHg 78%
    17:00 -1°C° 0 mm 6 mps 753 mmHg 77%
    18:00 -1°C° 0 mm 6 mps 754 mmHg 76%
    19:00 -1°C° 0 mm 6 mps 754 mmHg 76%
    20:00 -2°C° 0 mm 6 mps 755 mmHg 77%
    21:00 -2°C° 0 mm 6 mps 755 mmHg 77%
    22:00 -1°C° 0 mm 5 mps 755 mmHg 77%
    23:00 -1°C° 0 mm 5 mps 756 mmHg 78%

    16 December, Saturday

    Time Temperature Precipitation Wind Pressure Humidity
    00:00 -1°C° 0 mm 5 mps 756 mmHg 78%
    01:00 -1°C° 0 mm 5 mps 756 mmHg 78%
    02:00 -1°C° 0 mm 5 mps 757 mmHg 78%
    03:00 -1°C° 0 mm 5 mps 757 mmHg 78%
    04:00 -1°C° 0 mm 5 mps 757 mmHg 78%
    05:00 -1°C° 0 mm 5 mps 758 mmHg 78%
    06:00 -1°C° 0 mm 5 mps 758 mmHg 77%
    07:00 -1°C° 0 mm 5 mps 759 mmHg 77%
    08:00 -1°C° 0 mm 5 mps 759 mmHg 77%
    09:00 -1°C° 0 mm 5 mps 760 mmHg 77%
    10:00 0°C° 0 mm 4 mps 760 mmHg 76%
    11:00 +1°C° 0 mm 4 mps 761 mmHg 75%
    12:00 +1°C° 0 mm 4 mps 761 mmHg 74%
    13:00 +1°C° 0.2 mm 4 mps 761 mmHg 77%
    14:00 +1°C° 0.2 mm 4 mps 761 mmHg 79%
    15:00 +3°C° 0.2 mm 4 mps 762 mmHg 81%
    16:00 +3°C° 0.5 mm 4 mps 762 mmHg 84%
    17:00 +3°C° 0.5 mm 4 mps 762 mmHg 87%
    18:00 +3°C° 0.5 mm 4 mps 763 mmHg 89%
    19:00 +3°C° 0.2 mm 4 mps 763 mmHg 90%
    20:00 +2°C° 0.2 mm 3 mps 764 mmHg 90%
    21:00 +2°C° 0.2 mm 3 mps 764 mmHg 90%
    22:00 +2°C° 0 mm 3 mps 764 mmHg 90%
    23:00 +3°C° 0 mm 2 mps 764 mmHg 90%

    17 December, Sunday

    Time Temperature Precipitation Wind Pressure Humidity
    00:00 +2°C° 0 mm 2 mps 765 mmHg 91%
    01:00 +2°C° 0 mm 2 mps 765 mmHg 91%
    02:00 +2°C° 0 mm 2 mps 765 mmHg 91%
    03:00 +2°C° 0 mm 2 mps 765 mmHg 91%
    04:00 +2°C° 0 mm 2 mps 765 mmHg 90%
    05:00 +2°C° 0 mm 2 mps 765 mmHg 90%
    06:00 +3°C° 0 mm 2 mps 765 mmHg 90%
    07:00 +3°C° 0 mm 2 mps 765 mmHg 91%
    08:00 +2°C° 0 mm 3 mps 765 mmHg 92%
    09:00 +2°C° 0 mm 3 mps 766 mmHg 92%
    10:00 +3°C° 0 mm 4 mps 765 mmHg 93%
    11:00 +4°C° 0 mm 4 mps 765 mmHg 93%
    12:00 +3°C° 0 mm 5 mps 765 mmHg 93%
    13:00 +3°C° 0 mm 5 mps 764 mmHg 93%
    14:00 +3°C° 0 mm 5 mps 764 mmHg 94%
    15:00 +4°C° 0 mm 6 mps 763 mmHg 94%
    16:00 +4°C° 0.6 mm 6 mps 762 mmHg 94%
    17:00 +4°C° 0.6 mm 7 mps 762 mmHg 94%
    18:00 +5°C° 0.6 mm 8 mps 761 mmHg 95%
    19:00 +6°C° 0.6 mm 8 mps 761 mmHg 94%
    20:00 +6°C° 0.6 mm 8 mps 761 mmHg 94%
    21:00 +7°C° 0.6 mm 8 mps 760 mmHg 94%
    22:00 +7°C° 0.1 mm 8 mps 761 mmHg 94%
    23:00 +9°C° 0.1 mm 8 mps 761 mmHg 94%

    18 December, Monday

    Time Temperature Precipitation Wind Pressure Humidity
    00:00 +9°C° 0.1 mm 8 mps 761 mmHg 94%
    01:00 +8°C° 0 mm 7 mps 762 mmHg 93%
    02:00 +7°C° 0 mm 6 mps 763 mmHg 91%
    03:00 +7°C° 0 mm 5 mps 763 mmHg 90%
    04:00 +6°C° 0 mm 5 mps 764 mmHg 90%
    05:00 +6°C° 0 mm 4 mps 764 mmHg 90%
    06:00 +5°C° 0 mm 4 mps 765 mmHg 91%
    07:00 +5°C° 0 mm 3 mps 765 mmHg 91%
    08:00 +5°C° 0 mm 3 mps 766 mmHg 91%
    09:00 +5°C° 0 mm 2 mps 767 mmHg 91%
    10:00 +6°C° 0 mm 2 mps 767 mmHg 90%
    11:00 +6°C° 0 mm 2 mps 768 mmHg 88%
    12:00 +7°C° 0 mm 2 mps 768 mmHg 87%
    13:00 +7°C° 0 mm 2 mps 768 mmHg 87%
    14:00 +7°C° 0 mm 1 mps 768 mmHg 88%
    15:00 +7°C° 0 mm 1 mps 769 mmHg 88%
    16:00 +7°C° 0 mm 1 mps 769 mmHg 89%
    17:00 +6°C° 0 mm 1 mps 769 mmHg 90%
    18:00 +6°C° 0 mm 1 mps 770 mmHg 90%
    19:00 +6°C° 0 mm 1 mps 770 mmHg 91%
    20:00 +6°C° 0 mm 1 mps 770 mmHg 91%
    21:00 +5°C° 0 mm 1 mps 770 mmHg 92%
    22:00 +4°C° 0 mm 2 mps 770 mmHg 92%
    23:00 +4°C° 0 mm 2 mps 771 mmHg 92%
    Show more